STARLINK-38035, 69759

Orbit data source: Space-Track

STARLINK-38035, 69759 is a payload satellite owned by SpaceX/Seattle (US) in SSO that was launched on Thu, 02 Jul 2026 UTC via an FALCON 9 launch vehicle from the Air Force Western Test Range (AFWTR). Payload-class satellites include a variety of spacecraft equipped with specific instruments for various scientific and technological missions. These include communications satellites like Starlink; space stations such as the ISS; scientific satellites like the Hubble; Earth observation satellites from companies like Planet Labs, Umbra, and HawkEye 360; GPS; miniature CubeSats for education and research; and military/defense satellites.

Loading next visibility...
Identifier
69759, 2026-150W
Orbit
SSO
Country
Flag of USUS
Related business
Manufacturer
SpaceX/Seattle
Mission
Operational spacecraft
Bus & Motor
STARLINK V2MO, Unknown motor
Mass
575 kg wet, ~530 kg dry
Launch date (UTC)
2026-07-02 (3 weeks ago)
Launch vehicle
FALCON 9
Launch site
Air Force Western Test Range (AFWTR)
Object type
Payload
Rocket body
Debris
Shape & HBR
Unknown shape, 17.7 m
Radar Cross Section
Large (>1 m²)

Expand to show TLE details & history
Last TLE update: 1 day ago

TLE from 1 day ago
0 STARLINK-38035
1 69759U 26150W   26202.01098365  .00330113  00000-0  16477-2 0  9992
2 69759  97.2848  40.7686 0001464  32.1537 327.9821 15.80976666  4249
Epoch: 2026-07-21T00:15Z
TLE epoch observation values (Epoch: 2026-07-21T00:15:48.987Z)
Latitude
0.00005°
Longitude
98.02768°
Altitude
330.021 km
Speed
7.711 km/s
True Right ascension
02h 43m 04s
True Declination
0° 00' 00"
Sunlit
Object was in daylight at epoch
Visualization orbit readout
Latitude
Unknown
Longitude
Unknown
Altitude
Unknown
Speed
Unknown
Apparent Right ascension
Unknown
Apparent Declination
Unknown
Sunlit
N/A
Visualization observer readout
Local Sidereal Time
18:34:38
Azimuth
Unknown
Elevation
Unknown
Doppler factor
Unknown
Orbital elements
Apogee altitude
325.539 km
Perigee altitude
323.576 km
Semi-major axis
6,702.694 km
Eccentricity
0.00015
Inclination
97.2848°
RAAN
40.7686°
Arg. of periapsis
32.1537°
True anomaly
327.9732°
Mean anomaly
327.9821°
Eccentric anomaly
327.97765°
Mean motion
3.95521 °/min
Orbital period
91.02 mins
BSTAR
0.0016477
Loading maneuver chart data...
Computing Atmospheric mass density...
Loading historical data...
Loading historical data...
Loading historical data...
Loading historical data...
Loading historical data...
Loading historical data...
Loading historical data...

Documentation

Showing up to 5 results
|